This is the latest recevied weather packets stored in our database for station/object W4SKW. If no packets are shown the sender has not sent any weather packets the latest 10 day(s).
| Time | Temp. | Humidity | Pressure | Rain* | Wind** | Luminosity | Snow |
|---|---|---|---|---|---|---|---|
| 1777564679 | 18.89° C | 73% | 1014.9 hPa | 0 mm | - | 626 W/m² | - |
| 1777564374 | 18.33° C | 69% | 1014.8 hPa | 0 mm | - | 476 W/m² | - |
| 1777564070 | 18.33° C | 66% | 1015 hPa | 0 mm | - | 622 W/m² | - |
| 1777563767 | 17.78° C | 67% | 1014.8 hPa | 0 mm | - | 575 W/m² | - |
| 1777563463 | 17.78° C | 68% | 1014.9 hPa | 0 mm | - | 494 W/m² | - |
| 1777563162 | 17.22° C | 72% | 1015 hPa | 0 mm | - | 326 W/m² | - |
| 1777562859 | 16.67° C | 68% | 1015.1 hPa | 0 mm | - | 470 W/m² | - |
| 1777562556 | 16.67° C | 68% | 1014.9 hPa | 0 mm | - | 400 W/m² | - |
| 1777562254 | 16.67° C | 75% | 1014.7 hPa | 0 mm | - | 162 W/m² | - |
| 1777561952 | 16.67° C | 81% | 1014.9 hPa | 0 mm | - | 183 W/m² | - |
| 1777561649 | 16.67° C | 70% | 1014.9 hPa | 0 mm | - | 291 W/m² | - |
| 1777561345 | 16.67° C | 72% | 1014.8 hPa | 0 mm | - | 175 W/m² | - |
| 1777561040 | 15.56° C | 76% | 1014.5 hPa | 0 mm | - | 131 W/m² | - |
| 1777560735 | 16.11° C | 79% | 1014.6 hPa | 0 mm | - | 176 W/m² | - |
| 1777560432 | 16.11° C | 74% | 1014.6 hPa | 0 mm | - | 168 W/m² | - |
| 1777560131 | 16.11° C | 75% | 1014.7 hPa | 0 mm | - | 160 W/m² | - |
| 1777559827 | 15.56° C | 76% | 1014.6 hPa | 0 mm | - | 113 W/m² | - |
| 1777559523 | 15.56° C | 83% | 1014.6 hPa | 0 mm | - | 117 W/m² | - |
| 1777559220 | 15.56° C | 82% | 1014.6 hPa | 0 mm | - | 103 W/m² | - |
| 1777558915 | 15° C | 77% | 1014.5 hPa | 0 mm | - | 102 W/m² | - |
| 1777558611 | 15° C | 77% | 1014.5 hPa | 0 mm | - | 102 W/m² | - |
| 1777558307 | 15° C | 78% | 1014.5 hPa | 0 mm | - | 105 W/m² | - |
| 1777558004 | 15° C | 76% | 1014.7 hPa | 0 mm | - | 93 W/m² | - |
| 1777557699 | 15° C | 76% | 1014.4 hPa | 0 mm | - | 112 W/m² | - |
| 1777557396 | 15° C | 79% | 1014.5 hPa | 0 mm | - | 99 W/m² | - |
* Rain latest hour (hover to see other rain measurements)
** Current wind speed in m/s (hover to see current wind gust speed)